Flag for Algeria Weather past 2 weeks in Constantine, Algeria

Now
43 °F

Fog.


Feels Like: 43 °F
Forecast: 34 / 58 °F
Wind: 2 mph from West

Location: Constantine Airport

Current Time: Dec 22, 2014 at 11:22:24 AM

Latest Report: Dec 22, 2014 at 10:30 AM


Visibility: 0 mi

Pressure: 30.54 "Hg

Humidity: 100%

Dew point: 43 °F

Location of ConstantineLocation

Historic Weather in Constantine — Graph

°F

Constantine temperature yesterday

Maximum temperature yesterday: 55 °F (at 1:30 PM)
Minimum temperature yesterday: 41 °F (at 1:30 AM)
Average temperature yesterday: 47 °F

Past Weeks' High & Low Weather Summary

 TemperatureHumidityPressure
High61 °F (Dec 20, 1:30 PM)100% (Dec 18, 11:00 PM)30.54 "Hg (Dec 18, 11:00 PM)
Low34 °F (Dec 13, 7:00 AM)48% (Dec 13, 2:00 PM)29.89 "Hg (Dec 9, 3:30 PM)
Average46 °F81%30.19 "Hg
* Reported Dec 7 10:00 AM — Dec 22 10:00 AM, Constantine, Weather by CustomWeather, © 2014

Note: Actual official high and low records may vary slightly from our data, if they occured in-between our weather recording intervals... More about our weather records

Advertising

Constantine weather history for previous 24 hours

 ConditionsComfort  
Time TempWeatherWind HumidityBarometerVisibility
10:00 AM
Dec 22
41 °FFog.2 mph100%30.54 "Hg0 mi
9:30 AM43 °FFog.No wind100%30.51 "Hg0 mi
9:00 AM37 °FFog.No wind100%30.51 "Hg0 mi
8:30 AM34 °FFog.No wind100%30.51 "Hg1 mi
8:00 AM36 °FFog.No wind100%30.48 "Hg0 mi
7:30 AM34 °FFog.No wind100%30.48 "Hg0 mi
6:00 AM36 °FFog.No wind93%30.48 "Hg2 mi
5:30 AM36 °FFog.No wind93%30.48 "Hg2 mi
4:00 AM37 °FFog.No wind93%30.48 "Hg2 mi
3:30 AM37 °FFog.No wind93%30.48 "Hg2 mi
3:00 AM37 °FPassing clouds.No wind93%30.48 "Hg3 mi
2:30 AM39 °FPassing clouds.No wind93%30.48 "Hg3 mi
2:00 AM39 °FPassing clouds.No wind93%30.48 "Hg3 mi
1:00 AM41 °FPassing clouds.No wind93%30.48 "Hg3 mi
12:30 AM39 °FPassing clouds.No wind93%30.48 "Hg5 mi
12:00 AM39 °FPassing clouds.No wind93%30.48 "Hg5 mi
11:30 PM
Dec 21
43 °FPassing clouds.No wind93%30.48 "Hg5 mi
10:30 PM45 °FPassing clouds.No wind87%30.48 "Hg5 mi
10:00 PM45 °FPassing clouds.No wind87%30.48 "Hg5 mi
9:30 PM43 °FPassing clouds.No wind87%30.48 "Hg5 mi
9:00 PM43 °FPassing clouds.No wind87%30.48 "HgN/A
8:30 PM45 °FPassing clouds.No wind87%30.48 "HgN/A
8:00 PM46 °FPassing clouds.3 mph82%30.48 "HgN/A
7:30 PM50 °FPassing clouds.No wind76%30.48 "HgN/A
7:00 PM50 °FPassing clouds.No wind76%30.48 "HgN/A
6:30 PM50 °FPassing clouds.3 mph82%30.45 "HgN/A
6:00 PM52 °FPassing clouds.8 mph77%30.45 "HgN/A
5:30 PM52 °FPassing clouds.10 mph82%30.45 "HgN/A
5:00 PM52 °FPartly sunny.10 mph82%30.45 "HgN/A
4:30 PM52 °FPartly sunny.9 mph82%30.45 "HgN/A
4:00 PM54 °FPartly sunny.10 mph77%30.42 "HgN/A
3:30 PM54 °FPartly sunny.8 mph77%30.42 "HgN/A
3:00 PM54 °FPartly sunny.6 mph77%30.45 "HgN/A
2:30 PM54 °FPartly sunny.8 mph77%30.42 "HgN/A
2:00 PM55 °FPartly sunny.5 mph72%30.45 "HgN/A
1:30 PM55 °FScattered clouds.No wind77%30.45 "Hg5 mi
1:00 PM54 °FScattered clouds.No wind82%30.45 "Hg5 mi
12:00 PM54 °FScattered clouds.3 mph82%30.45 "Hg3 mi
11:30 AM52 °FFog.No wind94%30.48 "Hg2 mi
11:00 AM48 °FFog.No wind87%30.48 "Hg2 mi
Weather by CustomWeather, © 2014

See weather overviewHow to use our weather pages